Home > Weather > Preveza > Past weeks

Flag for Greece Weather for the Past 2 Weeks in Preveza, Greece

Now
61 °F

Mostly cloudy.


Feels Like: 61 °F
Forecast: 51 / 60 °F
Wind: 23 mph from Southwest

Location: Aktion Airport

Current Time: Feb 10, 2016 at 8:17:21 PM

Latest Report: Feb 10, 2016 at 7:20 PM


Visibility: 6 mi

Pressure: 29.74 "Hg

Humidity: 72%

Dew point: 52 °F

Location of PrevezaLocation

Historic Weather in Preveza — Graph

°F

Preveza Temperature Yesterday

Maximum temperature yesterday: 52 °F (at 10:50 AM)
Minimum temperature yesterday: 45 °F (at 12:50 AM)
Average temperature yesterday: 50 °F

High & Low Weather Summary for the Past Weeks

 TemperatureHumidityPressure
High64 °F (Feb 2, 1:20 PM)94% (Jan 29, 1:20 AM)30.48 "Hg (Jan 29, 1:20 AM)
Low39 °F (Feb 6, 7:20 AM)24% (Feb 6, 1:50 PM)29.74 "Hg (Feb 10, 4:50 PM)
Average52 °F75%30.25 "Hg
* Reported Jan 26 6:20 PM — Feb 10 6:50 PM, Preveza, Weather by CustomWeather, © 2016

Note: Actual official high and low records may vary slightly from our data, if they occured in-between our weather recording intervals... More about our weather records

Advertising

Preveza Weather History for the Previous 24 Hours

 ConditionsComfort  
Time TempWeatherWind HumidityBarometerVisibility
6:50 PM
Wed, Feb 10
61 °FPartly cloudy.20 mph72%29.74 "Hg6 mi
6:20 PM59 °FPartly cloudy.13 mph77%29.74 "Hg6 mi
5:50 PM59 °FBroken clouds.12 mph77%29.74 "Hg6 mi
5:20 PM59 °FDrizzle. Broken clouds.12 mph72%29.74 "Hg5 mi
4:50 PM59 °FDrizzle. Broken clouds.13 mph72%29.74 "Hg5 mi
4:20 PM61 °FMostly cloudy.15 mph68%29.77 "HgN/A
3:50 PM61 °FMostly cloudy.13 mph68%29.77 "HgN/A
3:20 PM61 °FMostly cloudy.13 mph68%29.80 "HgN/A
2:50 PM61 °FMostly cloudy.16 mph63%29.80 "HgN/A
2:20 PM61 °FMostly cloudy.13 mph63%29.83 "HgN/A
1:50 PM61 °FMostly cloudy.12 mph63%29.83 "HgN/A
1:20 PM61 °FMostly cloudy.13 mph63%29.86 "HgN/A
12:50 PM61 °FMostly cloudy.15 mph63%29.86 "HgN/A
12:20 PM61 °FMostly cloudy.16 mph63%29.86 "HgN/A
11:50 AM61 °FMostly cloudy.14 mph63%29.86 "HgN/A
11:20 AM61 °FMostly cloudy.14 mph63%29.89 "HgN/A
10:50 AM59 °FMostly cloudy.13 mph68%29.89 "HgN/A
10:20 AM59 °FBroken clouds.12 mph68%29.92 "HgN/A
9:50 AM57 °FPartly sunny.10 mph72%29.92 "HgN/A
9:20 AM57 °FMostly cloudy.10 mph72%29.92 "HgN/A
8:50 AM57 °FCloudy.10 mph72%29.95 "HgN/A
8:20 AM57 °FBroken clouds.9 mph67%29.95 "HgN/A
7:50 AM57 °FBroken clouds.9 mph67%29.95 "HgN/A
7:20 AM55 °FPassing clouds.6 mph77%29.98 "HgN/A
6:50 AM54 °FPartly cloudy.9 mph82%29.98 "HgN/A
5:50 AM54 °FPartly cloudy.7 mph82%29.98 "HgN/A
5:20 AM54 °FPartly cloudy.5 mph88%30.01 "HgN/A
4:50 AM54 °FPartly cloudy.5 mph88%30.01 "HgN/A
3:50 AM52 °FPartly cloudy.No wind88%30.04 "HgN/A
2:50 AM52 °FPartly cloudy.No wind88%30.07 "HgN/A
1:50 AM52 °FPassing clouds.No wind50%30.07 "HgN/A
12:50 AM50 °FPassing clouds.No wind94%30.09 "HgN/A
11:50 PM
Tue, Feb 9
52 °FPassing clouds.7 mph88%30.12 "HgN/A
10:50 PM50 °FPartly cloudy.7 mph94%30.12 "HgN/A
9:50 PM52 °FPartly cloudy.8 mph88%30.15 "HgN/A
8:50 PM52 °FPassing clouds.7 mph88%30.15 "HgN/A
Weather by CustomWeather, © 2016

See weather overviewHow to use our weather pages